Ottumwa, IA

11:40 PM CDT on May 26, 2018 (GMT -0500)
Ottumwa Industrial

Weather History for KOTM - March, 2013

Change the Weather History Date:

Sunday, March 24, 2013

  Actual Average Record
Temperature  
Mean Temperature 30 °F 42 °F  
Max Temperature 31 °F 53 °F 84 °F (1910)
Min Temperature 29 °F 31 °F 4 °F (1965)
Degree Days  
Heating Degree Days 35 23  
Month to date heating degree days 831 663  
Since 1 July heating degree days 5358 5548  
Cooling Degree Days 0 0  
Month to date cooling degree days 0 0  
Year to date cooling degree days 0 0  
Moisture  
Dew Point 27 °F    
Average Humidity 89    
Maximum Humidity 92    
Minimum Humidity 85    
Precipitation  
Precipitation 0.02 in 0.07 in 2.05 in (1920)
Month to date precipitation 1.99 1.67  
Year to date precipitation 5.32 3.85  
Sea Level Pressure  
Sea Level Pressure 29.90 in    
Wind  
Wind Speed 15 mph (North)    
Max Wind Speed 23 mph    
Max Gust Speed 26 mph    
Visibility 2 miles    
Events Fog , Snow    
T = Trace of Precipitation, MM = Missing Value Source: NWS Daily Summary

Daily Weather History Graph

Daily Weather History Graph

Search for Another Location

Airport or City:

Astronomy

Mar. 24, 2013 Rise Set
Actual Time 7:05 AM CDT 7:26 PM CDT
Civil Twilight 6:38 AM CDT 7:54 PM CDT
Nautical Twilight 6:06 AM CDT 8:26 PM CDT
Astronomical Twilight 5:33 AM CDT 8:59 PM CDT
Moon 4:54 PM CDT (3/24) 5:17 AM CDT (3/24)
Length of Visible Light 13h 15m
Length of Day
12h 20m
Waxing Gibbous, 92% of the Moon is Illuminated
Mar 24
Waxing Gibbous
Mar 27
Full
Apr 2
Last Quarter
Apr 10
New
Apr 18
First Quarter

Hourly Weather History & Observations

Time (CDT) Temp. Windchill Dew Point Humidity Pressure Visibility Wind Dir Wind Speed Gust Speed Precip Events Conditions
12:22 AM 30.2 °F 20.8 °F 28.4 °F 93% 30.00 in 2.0 mi NNE 11.5 mph - 0.00 in Snow Light Snow
12:53 AM 30.9 °F 20.2 °F 28.0 °F 89% 30.01 in 2.0 mi NNE 15.0 mph - 0.00 in Snow Light Snow
1:04 AM 30.2 °F 18.9 °F 28.4 °F 93% 29.99 in 2.5 mi NNE 16.1 mph - 0.00 in Snow Light Snow
1:42 AM 30.2 °F 20.2 °F 28.4 °F 93% 29.98 in 3.0 mi NE 12.7 mph - 0.00 in Snow Light Snow
1:50 AM 30.2 °F 20.2 °F 26.6 °F 86% 29.98 in 4.0 mi NE 12.7 mph - 0.00 in Snow Light Snow
1:53 AM 30.0 °F 20.0 °F 27.0 °F 88% 30.00 in 5.0 mi NE 12.7 mph - 0.00 in Snow Light Snow
2:48 AM 30.2 °F 21.9 °F 26.6 °F 86% 29.97 in 2.5 mi NE 9.2 mph - 0.00 in Snow Light Snow
2:53 AM 30.0 °F 20.5 °F 27.0 °F 88% 29.99 in 2.0 mi NE 11.5 mph - 0.00 in Snow Light Snow
3:04 AM 30.2 °F 20.2 °F 26.6 °F 86% 29.95 in 2.0 mi NE 12.7 mph - 0.00 in Snow Light Snow
3:12 AM 30.2 °F 20.2 °F 26.6 °F 86% 29.95 in 1.8 mi NE 12.7 mph - 0.00 in Snow Light Snow
3:28 AM 28.4 °F 18.5 °F 26.6 °F 93% 29.94 in 2.0 mi NNE 11.5 mph - 0.00 in Snow Light Snow
3:51 AM 28.4 °F 18.0 °F 26.6 °F 93% 29.93 in 3.0 mi NNE 12.7 mph - 0.00 in Snow Light Snow
3:53 AM 28.9 °F 18.6 °F 27.0 °F 92% 29.94 in 3.0 mi NNE 12.7 mph - 0.00 in Snow Light Snow
4:16 AM 28.4 °F 19.7 °F 26.6 °F 93% 29.93 in 3.0 mi NNE 9.2 mph - 0.00 in Snow Light Snow
4:28 AM 28.4 °F 19.1 °F 26.6 °F 93% 29.92 in 2.5 mi NE 10.4 mph - 0.00 in Snow Light Snow
4:44 AM 28.4 °F 17.5 °F 26.6 °F 93% 29.92 in 1.8 mi NE 13.8 mph - 0.00 in Snow Light Snow
4:49 AM 28.4 °F 18.5 °F 26.6 °F 93% 29.91 in 1.8 mi NE 11.5 mph - 0.00 in Snow Light Snow
4:53 AM 28.9 °F 18.6 °F 27.0 °F 92% 29.93 in 1.8 mi NE 12.7 mph - 0.00 in Snow Light Snow
5:12 AM 28.4 °F 21.2 °F 26.6 °F 93% 29.91 in 1.8 mi NNE 6.9 mph - 0.00 in Snow Light Snow
5:23 AM 28.4 °F 22.2 °F 26.6 °F 93% 29.92 in 2.0 mi North 5.8 mph - N/A Snow Light Snow
5:53 AM 28.9 °F 20.4 °F 27.0 °F 92% 29.93 in 1.8 mi NNE 9.2 mph - 0.00 in Snow Light Snow
6:12 AM 28.4 °F 17.5 °F 26.6 °F 93% 29.89 in 2.0 mi North 13.8 mph - 0.00 in Snow Light Snow
6:19 AM 28.4 °F 17.5 °F 26.6 °F 93% 29.89 in 2.0 mi NNE 13.8 mph - 0.00 in Snow Light Snow
6:26 AM 28.4 °F 18.5 °F 26.6 °F 93% 29.90 in 2.5 mi NNE 11.5 mph - 0.00 in Snow Light Snow
6:50 AM 28.4 °F 19.1 °F 26.6 °F 93% 29.89 in 2.0 mi North 10.4 mph - N/A Snow Light Snow
7:13 AM 28.4 °F 17.0 °F 26.6 °F 93% 29.88 in 1.8 mi North 15.0 mph - 0.00 in Snow Light Snow
7:25 AM 28.4 °F 18.0 °F 26.6 °F 93% 29.87 in 1.0 mi NNE 12.7 mph - 0.00 in Snow Light Snow
7:53 AM 28.9 °F 19.2 °F 26.1 °F 89% 29.90 in 2.0 mi North 11.5 mph - 0.00 in Snow Light Snow
8:33 AM 28.4 °F 18.5 °F 26.6 °F 93% 29.88 in 3.0 mi North 11.5 mph - 0.00 in Snow Light Snow
8:53 AM 28.9 °F 18.6 °F 26.1 °F 89% 29.90 in 4.0 mi North 12.7 mph - 0.00 in   Overcast
9:13 AM 28.4 °F 18.0 °F 26.6 °F 93% 29.88 in 6.0 mi North 12.7 mph - N/A   Overcast
9:39 AM 28.4 °F 18.5 °F 26.6 °F 93% 29.88 in 2.5 mi North 11.5 mph - 0.00 in Snow Light Snow
9:49 AM 28.4 °F 18.5 °F 26.6 °F 93% 29.88 in 1.0 mi North 11.5 mph - 0.00 in Snow Light Snow
9:53 AM 28.9 °F 19.2 °F 26.1 °F 89% 29.90 in 1.0 mi North 11.5 mph - 0.01 in Snow Light Snow
10:00 AM 28.4 °F 18.0 °F 26.6 °F 93% 29.88 in 0.5 mi North 12.7 mph - 0.00 in Fog , Snow Snow
10:23 AM 28.4 °F 17.5 °F 26.6 °F 93% 29.88 in 0.5 mi North 13.8 mph - 0.00 in Fog , Snow Snow
10:44 AM 28.4 °F 16.6 °F 26.6 °F 93% 29.87 in 0.5 mi North 16.1 mph - 0.00 in Fog , Snow Snow
10:53 AM 28.9 °F 17.7 °F 27.0 °F 92% 29.89 in 0.8 mi North 15.0 mph - 0.00 in Snow Light Snow
11:06 AM 28.4 °F 16.6 °F 26.6 °F 93% 29.87 in 1.0 mi North 16.1 mph - 0.00 in Snow Light Snow
11:15 AM 30.2 °F 18.9 °F 26.6 °F 86% 29.87 in 1.2 mi North 16.1 mph - 0.00 in Snow Light Snow
11:46 AM 28.4 °F 16.2 °F 26.6 °F 93% 29.86 in 1.8 mi North 17.3 mph - 0.00 in Snow Light Snow
11:53 AM 28.9 °F 16.5 °F 26.1 °F 89% 29.89 in 2.0 mi North 18.4 mph - 0.00 in Snow Light Snow
11:56 AM 28.4 °F 15.4 °F 26.6 °F 93% 29.86 in 1.8 mi North 19.6 mph - 0.00 in Snow Light Snow
12:53 PM 28.9 °F 17.3 °F 26.1 °F 89% 29.88 in 1.0 mi North 16.1 mph - 0.00 in Snow Light Snow
1:09 PM 28.4 °F 14.7 °F 26.6 °F 93% 29.84 in 0.8 mi North 21.9 mph - 0.00 in Snow Light Snow
1:17 PM 30.2 °F 17.8 °F 26.6 °F 86% 29.84 in 0.8 mi North 19.6 mph - 0.00 in Snow Light Snow
1:32 PM 30.2 °F 17.8 °F 26.6 °F 86% 29.83 in 0.8 mi North 19.6 mph - 0.00 in Snow Light Snow
1:49 PM 30.2 °F 17.1 °F 26.6 °F 86% 29.83 in 0.8 mi North 21.9 mph - 0.00 in Snow Light Snow
1:53 PM 30.0 °F 17.5 °F 26.1 °F 85% 29.86 in 0.8 mi NNW 19.6 mph - 0.00 in Snow Light Snow
2:12 PM 30.2 °F 17.4 °F 26.6 °F 86% 29.82 in 0.8 mi NNW 20.7 mph - 0.00 in Snow Light Snow
2:34 PM 30.2 °F 17.8 °F 26.6 °F 86% 29.82 in 0.8 mi NNW 19.6 mph 26.5 mph 0.00 in Snow Light Snow
2:44 PM 30.2 °F 18.5 °F 26.6 °F 86% 29.82 in 0.8 mi NNW 17.3 mph - 0.00 in Snow Light Snow
2:53 PM 30.0 °F 17.9 °F 27.0 °F 88% 29.85 in 0.5 mi NNW 18.4 mph - 0.00 in Fog , Snow Light Snow
3:28 PM 30.2 °F 17.8 °F 26.6 °F 86% 29.82 in 0.8 mi NNW 19.6 mph - 0.00 in Snow Light Snow
3:33 PM 30.2 °F 18.1 °F 26.6 °F 86% 29.82 in 0.8 mi NNW 18.4 mph - 0.00 in Snow Light Snow
3:53 PM 30.0 °F 17.9 °F 28.0 °F 92% 29.85 in 0.8 mi NNW 18.4 mph - 0.00 in Snow Light Snow
4:53 PM 30.0 °F 17.5 °F 28.0 °F 92% 29.86 in 0.8 mi NNW 19.6 mph - 0.00 in Snow Light Snow
5:19 PM 30.2 °F 17.8 °F 28.4 °F 93% 29.84 in 1.0 mi NNW 19.6 mph - 0.00 in Snow Light Snow
5:23 PM 30.2 °F 18.1 °F 28.4 °F 93% 29.85 in 0.8 mi NNW 18.4 mph - 0.00 in Snow Light Snow
5:41 PM 30.2 °F 18.1 °F 28.4 °F 93% 29.85 in 0.8 mi NNW 18.4 mph - 0.00 in Snow Light Snow
5:51 PM 30.2 °F 18.1 °F 28.4 °F 93% 29.86 in 1.2 mi NNW 18.4 mph - 0.00 in Snow Light Snow
5:53 PM 30.0 °F 17.9 °F 28.0 °F 92% 29.89 in 1.2 mi NNW 18.4 mph - 0.00 in Snow Light Snow
6:01 PM 30.2 °F 18.5 °F 26.6 °F 86% 29.86 in 1.0 mi NNW 17.3 mph - 0.00 in Snow Light Snow
6:13 PM 30.2 °F 18.1 °F 28.4 °F 93% 29.87 in 1.0 mi NNW 18.4 mph - 0.00 in Snow Light Snow
6:38 PM 30.2 °F 19.3 °F 28.4 °F 93% 29.87 in 0.8 mi NNW 15.0 mph - 0.00 in Snow Light Snow
6:50 PM 30.2 °F 18.5 °F 28.4 °F 93% 29.88 in 0.5 mi NNW 17.3 mph - 0.00 in Fog , Snow Snow
6:53 PM 30.0 °F 18.7 °F 28.0 °F 92% 29.91 in 0.5 mi NNW 16.1 mph - 0.00 in Fog , Snow Snow
7:32 PM 30.2 °F 18.5 °F 28.4 °F 93% 29.89 in 1.0 mi NNW 17.3 mph - 0.00 in Snow Light Snow
7:50 PM 30.2 °F 20.2 °F 28.4 °F 93% 29.89 in 1.5 mi NNW 12.7 mph - 0.00 in Snow Light Snow
7:53 PM 30.0 °F 20.0 °F 28.0 °F 92% 29.92 in 1.2 mi NNW 12.7 mph - 0.00 in Snow Light Snow
8:53 PM 30.0 °F 18.7 °F 28.0 °F 92% 29.93 in 1.2 mi NNW 16.1 mph - 0.01 in Snow Light Snow
9:26 PM 28.4 °F 17.0 °F 26.6 °F 93% 29.90 in 1.2 mi NNW 15.0 mph - 0.00 in Snow Light Snow
9:45 PM 30.2 °F 18.9 °F 26.6 °F 86% 29.91 in 1.0 mi NNW 16.1 mph - 0.00 in Snow Light Snow
9:53 PM 28.9 °F 17.7 °F 27.0 °F 92% 29.94 in 1.0 mi NNW 15.0 mph - 0.00 in Snow Light Snow
10:27 PM 28.4 °F 17.5 °F 26.6 °F 93% 29.91 in 1.2 mi NNW 13.8 mph - 0.00 in Snow Light Snow
10:53 PM 28.9 °F 18.6 °F 27.0 °F 92% 29.94 in 1.0 mi NW 12.7 mph - 0.00 in Snow Light Snow
11:15 PM 28.4 °F 17.5 °F 26.6 °F 93% 29.91 in 1.2 mi NW 13.8 mph - 0.00 in Snow Light Snow
11:53 PM 28.9 °F 17.7 °F 26.1 °F 89% 29.94 in 1.8 mi NW 15.0 mph - 0.00 in Snow Light Snow